�������l�o���
Date,Time,MP-1(��Sv/h),MP-2(��Sv/h),MP-3(��Sv/h),MP-4(��Sv/h),MP-5(��Sv/h),MP-6(��Sv/h),MP-7(��Sv/h),MP-8(��Sv/h),����,����(m/s),���J
2023/02/17,00:00,0.550,0.796,0.500,1.015,0.705,0.315,0.574,0.547,���k��,3.1,��
2023/02/17,00:10,0.549,0.796,0.500,1.015,0.706,0.316,0.573,0.546,���k��,3.5,��
2023/02/17,00:20,0.548,0.797,0.501,1.016,0.705,0.315,0.573,0.547,���k��,3.5,��
2023/02/17,00:30,0.549,0.796,0.500,1.017,0.705,0.316,0.573,0.547,���k��,3.8,��
2023/02/17,00:40,0.549,0.796,0.502,1.017,0.704,0.316,0.573,0.547,���k��,3.1,��
2023/02/17,00:50,0.550,0.797,0.500,1.015,0.704,0.316,0.573,0.546,���k��,3.3,��
2023/02/17,01:00,0.549,0.796,0.501,1.015,0.706,0.316,0.572,0.546,���k��,2.8,��
2023/02/17,01:10,0.548,0.797,0.501,1.017,0.704,0.317,0.573,0.547,���k��,2.3,��
2023/02/17,01:20,0.549,0.796,0.501,1.016,0.704,0.316,0.574,0.547,��,2.0,��
2023/02/17,01:30,0.549,0.797,0.501,1.015,0.704,0.316,0.572,0.548,��,2.0,��
2023/02/17,01:40,0.550,0.796,0.500,1.015,0.704,0.316,0.572,0.548,��,1.8,��
2023/02/17,01:50,0.548,0.797,0.501,1.016,0.704,0.315,0.573,0.548,���k��,1.2,��
2023/02/17,02:00,0.549,0.796,0.498,1.016,0.706,0.316,0.572,0.546,���k��,1.5,��
2023/02/17,02:10,0.547,0.797,0.501,1.016,0.706,0.315,0.573,0.547,��,2.2,��
2023/02/17,02:20,0.548,0.796,0.501,1.015,0.705,0.316,0.572,0.548,���k��,2.8,��
2023/02/17,02:30,0.548,0.796,0.499,1.013,0.704,0.316,0.575,0.547,���k��,3.1,��
2023/02/17,02:40,0.548,0.796,0.500,1.016,0.703,0.315,0.573,0.547,���k��,3.6,��
2023/02/17,02:50,0.547,0.796,0.500,1.016,0.705,0.316,0.572,0.547,���k��,2.6,��
2023/02/17,03:00,0.550,0.796,0.499,1.019,0.704,0.317,0.574,0.547,��,2.6,��
2023/02/17,03:10,0.548,0.796,0.499,1.017,0.704,0.316,0.573,0.548,��,2.2,��
2023/02/17,03:20,0.549,0.795,0.500,1.017,0.705,0.315,0.573,0.546,���쐼,1.9,��
2023/02/17,03:30,0.548,0.796,0.499,1.016,0.705,0.316,0.571,0.546,���쐼,1.7,��
2023/02/17,03:40,0.549,0.796,0.500,1.018,0.705,0.316,0.572,0.547,��,2.3,��
2023/02/17,03:50,0.547,0.798,0.501,1.016,0.704,0.316,0.573,0.548,��,2.9,��
2023/02/17,04:00,0.548,0.797,0.500,1.017,0.704,0.316,0.573,0.546,��,2.3,��
2023/02/17,04:10,0.550,0.795,0.501,1.014,0.705,0.316,0.573,0.547,��,2.5,��
2023/02/17,04:20,0.548,0.798,0.499,1.019,0.704,0.315,0.573,0.547,��,2.9,��
2023/02/17,04:30,0.547,0.794,0.500,1.018,0.701,0.316,0.572,0.546,��,3.2,��
2023/02/17,04:40,0.549,0.796,0.500,1.016,0.703,0.315,0.574,0.546,��,3.6,��
2023/02/17,04:50,0.548,0.796,0.500,1.015,0.703,0.315,0.573,0.546,��,4.4,��
2023/02/17,05:00,0.547,0.797,0.500,1.015,0.704,0.316,0.572,0.546,��,3.7,��
2023/02/17,05:10,0.548,0.796,0.501,1.017,0.702,0.315,0.573,0.547,��,3.6,��
2023/02/17,05:20,0.549,0.795,0.501,1.018,0.704,0.315,0.572,0.546,��,3.1,��
2023/02/17,05:30,0.546,0.794,0.499,1.015,0.703,0.316,0.571,0.547,��,3.8,��
2023/02/17,05:40,0.548,0.795,0.501,1.016,0.705,0.315,0.573,0.545,��,4.6,��
2023/02/17,05:50,0.547,0.797,0.498,1.015,0.704,0.317,0.574,0.547,��,4.5,��
2023/02/17,06:00,0.548,0.797,0.501,1.017,0.702,0.314,0.572,0.546,���k��,4.3,��
2023/02/17,06:10,0.547,0.795,0.499,1.016,0.701,0.314,0.573,0.546,���k��,4.3,��
2023/02/17,06:20,0.547,0.797,0.500,1.016,0.701,0.315,0.573,0.546,���k��,3.6,��
2023/02/17,06:30,0.550,0.795,0.500,1.015,0.703,0.316,0.573,0.547,���k��,3.9,��
2023/02/17,06:40,0.548,0.795,0.500,1.015,0.701,0.316,0.573,0.548,��,3.9,��
2023/02/17,06:50,0.548,0.794,0.501,1.017,0.702,0.316,0.573,0.547,��,5.3,��
2023/02/17,07:00,0.548,0.797,0.499,1.017,0.702,0.315,0.572,0.546,���k��,4.7,��
2023/02/17,07:10,0.547,0.796,0.500,1.015,0.703,0.314,0.574,0.547,��,4.1,��
2023/02/17,07:20,0.548,0.795,0.499,1.014,0.703,0.315,0.575,0.546,��,3.4,��
2023/02/17,07:30,0.547,0.796,0.500,1.014,0.701,0.316,0.574,0.547,��,3.3,��
2023/02/17,07:40,0.549,0.796,0.501,1.016,0.705,0.315,0.574,0.547,��,3.5,��
2023/02/17,07:50,0.548,0.796,0.501,1.015,0.703,0.315,0.574,0.547,��,3.1,��
2023/02/17,08:00,0.550,0.797,0.501,1.018,0.701,0.315,0.575,0.547,��,2.8,��
2023/02/17,08:10,0.550,0.794,0.499,1.016,0.701,0.316,0.574,0.547,��,2.3,��
2023/02/17,08:20,0.550,0.794,0.501,1.017,0.704,0.315,0.573,0.549,��,2.2,��
2023/02/17,08:30,0.549,0.796,0.500,1.017,0.703,0.316,0.574,0.548,��,3.1,��
2023/02/17,08:40,0.550,0.797,0.501,1.017,0.701,0.314,0.574,0.549,��,2.3,��
2023/02/17,08:50,0.550,0.797,0.501,1.017,0.702,0.316,0.575,0.548,���쐼,3.1,��
2023/02/17,09:00,0.551,0.793,0.501,1.017,0.704,0.316,0.575,0.547,��,3.7,��
2023/02/17,09:10,0.552,0.796,0.502,1.016,0.706,0.317,0.576,0.546,��,3.6,��
2023/02/17,09:20,0.551,0.796,0.502,1.017,0.703,0.316,0.574,0.548,���k��,2.9,��
2023/02/17,09:30,0.552,0.796,0.501,1.017,0.704,0.317,0.573,0.548,���k��,2.5,��
2023/02/17,09:40,0.551,0.796,0.502,1.016,0.705,0.317,0.574,0.548,�k��,2.6,��
2023/02/17,09:50,0.551,0.795,0.501,1.018,0.703,0.316,0.574,0.547,���쐼,3.1,��
2023/02/17,10:00,0.550,0.795,0.503,1.017,0.704,0.316,0.573,0.547,��,3.3,��
2023/02/17,10:10,0.552,0.797,0.502,1.019,0.704,0.317,0.572,0.549,��,3.3,��
2023/02/17,10:20,0.553,0.796,0.503,1.015,0.706,0.316,0.573,0.549,���k��,3.7,��
2023/02/17,10:30,0.549,0.795,0.502,1.018,0.707,0.317,0.573,0.549,���k��,2.6,��
2023/02/17,10:40,0.550,0.796,0.504,1.020,0.707,0.316,0.571,0.548,��,3.0,��
2023/02/17,10:50,0.552,0.792,0.503,1.017,0.705,0.318,0.572,0.547,��,1.5,��
2023/02/17,11:00,0.553,0.797,0.503,1.017,0.706,0.318,0.573,0.549,�k�k��,3.2,��
2023/02/17,11:10,0.552,0.797,0.504,1.017,0.706,0.320,0.572,0.549,�k,2.0,��
2023/02/17,11:20,0.551,0.798,0.504,1.018,0.705,0.317,0.573,0.549,���k��,2.0,��
2023/02/17,11:30,0.551,0.798,0.502,1.019,0.708,0.316,0.574,0.548,�k��,2.3,��
2023/02/17,11:40,0.553,0.797,0.506,1.020,0.708,0.317,0.574,0.549,���k��,2.8,��
2023/02/17,11:50,0.553,0.798,0.503,1.017,0.708,0.317,0.573,0.549,���k��,3.3,��
2023/02/17,12:00,0.553,0.799,0.504,1.017,0.709,0.317,0.572,0.548,��,2.9,��
2023/02/17,12:10,0.553,0.800,0.503,1.017,0.708,0.317,0.575,0.548,���k��,3.0,��
2023/02/17,12:20,0.552,0.800,0.504,1.019,0.708,0.317,0.574,0.550,���k��,2.3,��
2023/02/17,12:30,0.553,0.797,0.504,1.018,0.709,0.317,0.574,0.549,���쓌,3.6,��
2023/02/17,12:40,0.554,0.798,0.503,1.020,0.708,0.318,0.575,0.549,���쓌,3.2,��
2023/02/17,12:50,0.554,0.798,0.505,1.019,0.708,0.317,0.573,0.549,��,2.9,��
2023/02/17,13:00,0.554,0.799,0.503,1.017,0.707,0.318,0.574,0.550,���쓌,2.8,��
2023/02/17,13:10,0.554,0.798,0.506,1.020,0.709,0.318,0.574,0.550,��,2.6,��
2023/02/17,13:20,0.556,0.798,0.504,1.019,0.710,0.318,0.574,0.548,��,2.8,��
2023/02/17,13:30,0.554,0.798,0.504,1.019,0.709,0.319,0.574,0.547,�쓌,3.7,��
2023/02/17,13:40,0.554,0.796,0.504,1.019,0.709,0.320,0.576,0.549,��,3.3,��
2023/02/17,13:50,0.555,0.800,0.505,1.020,0.709,0.319,0.574,0.547,��,4.5,��
2023/02/17,14:00,0.555,0.799,0.504,1.020,0.709,0.318,0.574,0.548,���쓌,4.3,��
2023/02/17,14:10,0.554,0.801,0.504,1.019,0.706,0.318,0.575,0.546,���쓌,3.8,��
2023/02/17,14:20,0.554,0.801,0.506,1.020,0.710,0.318,0.576,0.547,�쓌,4.8,��
2023/02/17,14:30,0.554,0.800,0.505,1.019,0.710,0.319,0.574,0.546,���쓌,4.6,��
2023/02/17,14:40,0.553,0.801,0.505,1.018,0.710,0.318,0.574,0.546,�쓌,4.2,��
2023/02/17,14:50,0.555,0.800,0.505,1.021,0.710,0.318,0.573,0.547,�쓌,5.1,��
2023/02/17,15:00,0.555,0.802,0.504,1.020,0.711,0.318,0.574,0.546,�쓌,4.5,��
2023/02/17,15:10,0.554,0.799,0.505,1.019,0.708,0.319,0.574,0.547,���쓌,4.6,��
2023/02/17,15:20,0.556,0.800,0.506,1.021,0.711,0.318,0.575,0.547,���쓌,4.0,��
2023/02/17,15:30,0.556,0.802,0.505,1.019,0.710,0.318,0.574,0.547,�쓌,2.8,��
2023/02/17,15:40,0.555,0.803,0.505,1.021,0.710,0.319,0.576,0.549,���쓌,3.0,��
2023/02/17,15:50,0.555,0.802,0.506,1.023,0.712,0.319,0.575,0.550,�쓌,3.6,��
2023/02/17,16:00,0.554,0.804,0.506,1.022,0.710,0.318,0.577,0.549,�쓌,3.5,��
2023/02/17,16:10,0.555,0.803,0.507,1.022,0.710,0.318,0.576,0.550,�쓌,4.2,��
2023/02/17,16:20,0.555,0.804,0.505,1.021,0.711,0.319,0.578,0.549,�쓌,3.9,��
2023/02/17,16:30,0.553,0.804,0.507,1.019,0.710,0.317,0.578,0.549,�쓌,3.5,��
2023/02/17,16:40,0.555,0.805,0.506,1.021,0.712,0.319,0.577,0.549,�쓌,2.6,��
2023/02/17,16:50,0.556,0.802,0.506,1.021,0.709,0.319,0.576,0.550,��쓌,2.9,��
2023/02/17,17:00,0.554,0.802,0.506,1.020,0.710,0.319,0.576,0.549,��,2.5,��
2023/02/17,17:10,0.556,0.803,0.507,1.020,0.711,0.319,0.578,0.547,��,2.9,��
2023/02/17,17:20,0.556,0.803,0.505,1.019,0.711,0.319,0.577,0.550,��,3.4,��
2023/02/17,17:30,0.556,0.805,0.505,1.020,0.711,0.319,0.578,0.548,��,3.0,��
2023/02/17,17:40,0.555,0.802,0.506,1.021,0.712,0.319,0.577,0.549,��,4.1,��
2023/02/17,17:50,0.556,0.803,0.505,1.021,0.711,0.320,0.576,0.548,��,4.2,��
2023/02/17,18:00,0.554,0.803,0.505,1.020,0.710,0.319,0.577,0.548,��쐼,2.9,��
2023/02/17,18:10,0.554,0.803,0.505,1.020,0.710,0.319,0.576,0.550,���쐼,2.3,��
2023/02/17,18:20,0.553,0.804,0.504,1.019,0.713,0.319,0.576,0.549,���쐼,2.6,��
2023/02/17,18:30,0.556,0.804,0.504,1.019,0.711,0.320,0.576,0.549,���쐼,3.0,��
2023/02/17,18:40,0.555,0.803,0.504,1.023,0.711,0.318,0.576,0.548,�쐼,3.8,��
2023/02/17,18:50,0.556,0.803,0.506,1.021,0.710,0.320,0.576,0.548,�쐼,4.4,��
2023/02/17,19:00,0.555,0.801,0.506,1.020,0.710,0.319,0.576,0.549,���쐼,4.1,��
2023/02/17,19:10,0.554,0.802,0.505,1.019,0.712,0.318,0.576,0.548,��,4.5,��
2023/02/17,19:20,0.554,0.803,0.504,1.022,0.712,0.319,0.575,0.548,��,4.0,��
2023/02/17,19:30,0.555,0.804,0.505,1.020,0.711,0.319,0.575,0.548,���쐼,3.6,��
2023/02/17,19:40,0.553,0.803,0.505,1.018,0.714,0.319,0.576,0.548,���쐼,4.3,��
2023/02/17,19:50,0.555,0.804,0.505,1.021,0.711,0.319,0.575,0.547,�쐼,4.5,��
2023/02/17,20:00,0.556,0.804,0.505,1.022,0.711,0.317,0.575,0.549,�쐼,5.0,��
2023/02/17,20:10,0.554,0.803,0.503,1.020,0.714,0.317,0.576,0.548,�쐼,5.9,��
2023/02/17,20:20,0.557,0.804,0.505,1.020,0.713,0.318,0.576,0.548,���쐼,6.0,��
2023/02/17,20:30,0.553,0.803,0.505,1.020,0.711,0.319,0.576,0.549,���쐼,7.1,��
2023/02/17,20:40,0.554,0.803,0.504,1.021,0.709,0.318,0.576,0.547,���쐼,6.5,��
2023/02/17,20:50,0.555,0.804,0.504,1.023,0.712,0.319,0.577,0.550,���쐼,7.5,��
2023/02/17,21:00,0.555,0.804,0.506,1.019,0.711,0.320,0.576,0.548,���쐼,5.7,��
2023/02/17,21:10,0.555,0.802,0.506,1.023,0.710,0.319,0.576,0.548,�쐼,4.5,��
2023/02/17,21:20,0.555,0.803,0.506,1.020,0.712,0.318,0.576,0.549,�쐼,3.4,��
2023/02/17,21:30,0.556,0.804,0.505,1.021,0.711,0.317,0.575,0.549,�쐼,3.7,��
2023/02/17,21:40,0.556,0.804,0.506,1.022,0.711,0.317,0.577,0.550,��쐼,4.0,��
2023/02/17,21:50,0.557,0.804,0.504,1.021,0.711,0.318,0.574,0.549,��쐼,3.0,��
2023/02/17,22:00,0.556,0.802,0.505,1.021,0.712,0.318,0.574,0.548,��쐼,3.7,��
2023/02/17,22:10,0.556,0.802,0.508,1.020,0.712,0.320,0.576,0.547,��,5.9,��
2023/02/17,22:20,0.553,0.804,0.505,1.021,0.712,0.319,0.577,0.548,��쐼,6.0,��
2023/02/17,22:30,0.555,0.803,0.507,1.020,0.713,0.319,0.575,0.549,��쐼,7.8,��
2023/02/17,22:40,0.556,0.804,0.507,1.023,0.710,0.319,0.576,0.548,��쐼,7.8,��
2023/02/17,22:50,0.555,0.803,0.508,1.019,0.712,0.318,0.577,0.549,��쐼,7.5,��
2023/02/17,23:00,0.555,0.803,0.505,1.020,0.712,0.319,0.577,0.549,�쐼,7.1,��
2023/02/17,23:10,0.557,0.804,0.506,1.022,0.712,0.318,0.576,0.549,��쐼,6.8,��
2023/02/17,23:20,0.555,0.803,0.505,1.022,0.711,0.318,0.576,0.548,��쐼,7.9,��
2023/02/17,23:30,0.556,0.803,0.506,1.021,0.712,0.318,0.575,0.548,��쐼,9.1,��
2023/02/17,23:40,0.556,0.803,0.506,1.021,0.712,0.319,0.577,0.549,��쐼,7.5,��
2023/02/17,23:50,0.556,0.804,0.506,1.022,0.712,0.318,0.577,0.549,��쐼,7.1,��
